Home   Weather   Muscat   Past weeks
Flag for Oman

Past Weather in Muscat, Oman — Yesterday and Last 2 Weeks

Now
84 °F

Clear.


Feels Like: 94 °F
Forecast: 85 / 80 °F
Wind: 3 mph from North

Location: International Airport

Current Time: Aug 20, 2019 at 12:35:37 am

Latest Report: Aug 19, 2019 at 11:50 pm


Visibility: 10 mi

Pressure: 29.65 "Hg

Humidity: 79%

Dew Point: 77 °F

Location of MuscatLocation

Past Weather in Muscat — Graph

°F

Muscat Temperature Yesterday

Maximum temperature yesterday: 90 °F (at 1:50 pm)
Minimum temperature yesterday: 81 °F (at 4:50 am)
Average temperature yesterday: 85 °F

High & Low Weather Summary for the Past Weeks

 TemperatureHumidityPressure
High106 °F (Aug 7, 9:50 am)100% (Aug 5, 5:50 am)29.68 "Hg (Aug 5, 5:50 am)
Low81 °F (Aug 19, 4:50 am)18% (Aug 7, 8:50 pm)29.27 "Hg (Aug 7, 5:50 pm)
Average90 °F72%29.44 "Hg
* Reported Aug 4 10:50 pm — Aug 19 10:50 pm, Muscat. Weather by CustomWeather, © 2019

Note: Actual official high and low records may vary slightly from our data, if they occured in-between our weather recording intervals... More about our weather records

Advertising

Muscat Weather History for the Previous 24 Hours

Scroll right to see more
 ConditionsComfort  
Time TempWeatherWind HumidityBarometerVisibility
10:50 pm
Mon, Aug 19
82 °FClear.3 mph89%29.65 "Hg10 mi
9:50 pm84 °FClear.3 mph79%29.65 "Hg10 mi
8:50 pm84 °FClear.3 mph79%29.65 "Hg10 mi
7:50 pm84 °FClear.5 mph79%29.62 "Hg10 mi
6:50 pm84 °FClear.8 mph79%29.62 "Hg10 mi
5:50 pm84 °FSunny.14 mph79%29.59 "Hg10 mi
4:50 pm86 °FSunny.15 mph75%29.59 "Hg10 mi
3:50 pm88 °FSunny.17 mph70%29.62 "Hg10 mi
2:50 pm90 °FSunny.17 mph67%29.62 "Hg10 mi
1:50 pm90 °FClear.17 mph63%29.65 "Hg6 mi
12:50 pm88 °FSunny.17 mph70%29.65 "Hg10 mi
11:50 am88 °FSunny.14 mph66%29.68 "Hg10 mi
10:50 am88 °FSunny.9 mph70%29.68 "Hg10 mi
9:50 am88 °FPassing clouds.8 mph70%29.68 "HgN/A
8:50 am86 °FPassing clouds.6 mph75%29.68 "HgN/A
7:50 am84 °FSunny.7 mph84%29.68 "Hg10 mi
6:50 am84 °FSunny.3 mph74%29.65 "Hg10 mi
5:50 am81 °FSunny.2 mph84%29.62 "Hg10 mi
4:50 am81 °FClear.2 mph89%29.62 "Hg10 mi
3:50 am82 °FClear.8 mph84%29.59 "Hg10 mi
2:50 am84 °FClear.3 mph79%29.56 "Hg10 mi
1:50 am82 °FPassing clouds.3 mph84%29.56 "HgN/A
12:50 am84 °FClear.5 mph79%29.59 "Hg10 mi
Weather by CustomWeather, © 2019

See weather overview